This is the latest recevied weather packets stored in our database for station/object KD8NVS-13. If no packets are shown the sender has not sent any weather packets the latest 1 day(s).
| Time | Temp. | Humidity | Pressure | Rain* | Wind** | Luminosity | Snow |
|---|---|---|---|---|---|---|---|
| 1778015997 | 22.22° C | 60% | 997.3 hPa | 0 mm | 0.89 m/s, 312° | 108 W/m² | - |
| 1778015695 | 22.78° C | 60% | 997.6 hPa | 0 mm | 0.89 m/s, 238° | 166 W/m² | - |
| 1778015391 | 22.78° C | 59% | 997.3 hPa | 0 mm | 0.89 m/s, 253° | 158 W/m² | - |
| 1778015088 | 22.78° C | 59% | 997.6 hPa | 0 mm | 0.89 m/s, 189° | 194 W/m² | - |
| 1778014785 | 22.22° C | 58% | 997.6 hPa | 0 mm | 4.47 m/s, 271° | 293 W/m² | - |
| 1778014483 | 22.22° C | 60% | 997.6 hPa | 0 mm | 2.24 m/s, 281° | 204 W/m² | - |
| 1778014180 | 21.67° C | 60% | 998 hPa | 0 mm | 3.13 m/s, 265° | 172 W/m² | - |
| 1778013878 | 21.67° C | 60% | 997.6 hPa | 0 mm | 0.89 m/s, 126° | 160 W/m² | - |
| 1778013574 | 21.67° C | 60% | 998 hPa | 0 mm | 1.79 m/s, 257° | 151 W/m² | - |
| 1778013271 | 21.67° C | 61% | 998 hPa | 0 mm | 0.89 m/s, 276° | 122 W/m² | - |
| 1778012967 | 21.67° C | 62% | 998 hPa | 0 mm | 1.34 m/s, 164° | 124 W/m² | - |
| 1778012664 | 21.67° C | 61% | 998 hPa | 0 mm | 0 m/s | 110 W/m² | - |
| 1778012360 | 21.67° C | 60% | 998 hPa | 0 mm | 0.89 m/s, 150° | 120 W/m² | - |
| 1778012057 | 21.67° C | 61% | 998 hPa | 0 mm | 1.34 m/s, 111° | 130 W/m² | - |
| 1778011756 | 21.67° C | 61% | 998 hPa | 0 mm | 1.34 m/s, 210° | 134 W/m² | - |
| 1778011452 | 21.67° C | 61% | 998 hPa | 0 mm | 0.45 m/s, 248° | 158 W/m² | - |
| 1778011148 | 21.67° C | 61% | 998 hPa | 0 mm | 1.79 m/s, 270° | 135 W/m² | - |
| 1778010846 | 21.67° C | 62% | 998.3 hPa | 0 mm | 0 m/s | 93 W/m² | - |
| 1778010543 | 21.67° C | 61% | 998.3 hPa | 0 mm | 0.89 m/s, 158° | 147 W/m² | - |
| 1778010240 | 21.11° C | 61% | 998.3 hPa | 0 mm | 0.89 m/s, 266° | 116 W/m² | - |
| 1778009935 | 21.11° C | 60% | 998.7 hPa | 0 mm | 1.79 m/s, 123° | 70 W/m² | - |
| 1778009633 | 21.11° C | 61% | 998.7 hPa | 0 mm | 1.79 m/s, 269° | 86 W/m² | - |
| 1778009330 | 21.11° C | 61% | 998.7 hPa | 0 mm | 0.89 m/s, 255° | 86 W/m² | - |
| 1778009028 | 21.11° C | 62% | 998.7 hPa | 0 mm | 1.79 m/s, 204° | 59 W/m² | - |
| 1778008726 | 21.11° C | 61% | 998.7 hPa | 0 mm | 0.89 m/s, 269° | 72 W/m² | - |
* Rain latest hour (hover to see other rain measurements)
** Current wind speed in m/s (hover to see current wind gust speed)